Date String (YYYY-MM-DD hh:mm:ss) UTC,Instrument flags,Ambient pressure (hPa),Sample flow (lpm),Bypass flow (lpm),Sample temperature (°C),Ambient temperature (°C),ASC tube jacket temperature (°C),LED temperature (°C),Box temperature (°C),Sample RH (%),Span deviation,Mass concentration (μg/m³),Mass concentration (μg/m³),Mass concentration (μg/m³)
DateTimeUTC,F1_M11,P_M11,Q1_M11,Q2_M11,T1_M11,T2_M11,T3_M11,T4_M11,T5_M11,U1_M11,ZSPAN_M11,X2_M11,X0_M11,X1_M11
2021-11-21 00:00:00,,0829.0,5.00,0.00,26.1,25.4,00.0,35.0,27.9,15.8,0000.0,0005.36,0013.49,0004.01
2021-11-21 00:01:00,,0829.1,5.00,0.00,26.1,25.4,00.0,35.0,27.9,15.8,0000.0,0005.36,0013.20,0004.02
2021-11-21 00:02:00,,0829.1,5.00,0.00,26.1,25.3,00.0,35.0,27.9,15.8,0000.0,0005.41,0013.30,0004.03
2021-11-21 00:03:00,,0829.0,4.99,0.00,26.1,25.4,00.0,35.0,27.9,15.8,0000.0,0005.39,0013.01,0004.03
2021-11-21 00:04:00,,0829.0,5.00,0.00,26.1,25.4,00.0,35.0,27.9,15.8,0000.0,0005.43,0012.73,0004.06
2021-11-21 00:05:00,,0829.0,5.00,0.00,26.1,25.4,00.0,35.0,28.0,15.8,0000.0,0005.43,0012.82,0004.08
2021-11-21 00:06:00,,0829.0,4.99,0.00,26.1,25.4,00.0,35.0,28.0,15.8,0000.0,0005.43,0012.37,0004.09
2021-11-21 00:07:00,,0829.0,5.01,0.00,26.1,25.4,00.0,35.0,28.0,15.7,0000.0,0005.37,0011.93,0004.10
2021-11-21 00:08:00,,0829.0,4.99,0.00,26.1,25.4,00.0,35.1,28.0,15.7,0000.0,0005.42,0013.18,0004.09
2021-11-21 00:09:00,,0829.0,5.00,0.00,26.1,25.4,00.0,35.1,28.0,15.7,0000.0,0005.42,0014.17,0004.09
2021-11-21 00:10:00,,0829.0,5.01,0.00,26.1,25.4,00.0,35.1,28.0,15.7,0000.0,0005.43,0015.14,0004.08
2021-11-21 00:11:00,,0829.0,4.99,0.00,26.1,25.4,00.0,35.1,28.0,15.7,0000.0,0005.43,0015.20,0004.08
2021-11-21 00:12:00,,0829.1,5.01,0.00,26.1,25.4,00.0,35.1,28.0,16.0,0000.0,0005.31,0014.69,0004.03
2021-11-21 00:13:00,,0829.1,5.00,0.00,26.1,25.4,00.0,35.1,27.9,16.2,0000.0,0005.11,0014.31,0003.93
2021-11-21 00:14:00,,0829.1,5.01,0.00,26.1,25.4,00.0,35.1,27.9,15.8,0000.0,0005.03,0014.75,0003.89
2021-11-21 00:15:00,,0829.1,4.99,0.00,26.1,25.3,00.0,35.1,27.9,15.8,0000.0,0005.04,0015.74,0003.89
2021-11-21 00:16:00,,0829.1,5.01,0.00,26.1,25.3,00.0,35.1,27.9,15.7,0000.0,0005.06,0015.74,0003.88
2021-11-21 00:17:00,,0829.1,4.99,0.00,26.1,25.3,00.0,35.1,27.9,15.8,0000.0,0005.11,0015.75,0003.89
2021-11-21 00:18:00,,0829.1,4.99,0.00,26.1,25.3,00.0,35.1,27.9,15.8,0000.0,0005.12,0016.22,0003.88
2021-11-21 00:19:00,,0829.1,5.00,0.00,26.1,25.3,00.0,35.1,27.9,15.7,0000.0,0005.12,0015.56,0003.88
2021-11-21 00:20:00,,0829.0,5.01,0.00,26.1,25.4,00.0,35.1,28.0,15.7,0000.0,0005.10,0015.32,0003.87
2021-11-21 00:21:00,,0829.0,4.99,0.00,26.1,25.4,00.0,35.1,28.0,15.7,0000.0,0005.08,0014.41,0003.86
2021-11-21 00:22:00,,0829.1,5.00,0.00,26.1,25.4,00.0,35.1,28.0,15.7,0000.0,0005.06,0014.17,0003.84
2021-11-21 00:23:00,,0829.0,5.00,0.00,26.1,25.4,00.0,35.1,28.0,15.7,0000.0,0005.17,0015.17,0003.89
2021-11-21 00:24:00,,0829.1,5.00,0.00,26.1,25.4,00.0,35.1,28.0,15.7,0000.0,0005.27,0015.96,0003.98
2021-11-21 00:25:00,,0829.0,5.00,0.00,26.1,25.4,00.0,35.1,27.9,15.7,0000.0,0005.36,0016.16,0004.02
2021-11-21 00:26:00,,0829.1,5.00,0.00,26.1,25.3,00.0,35.1,27.9,15.8,0000.0,0005.38,0015.37,0004.02
2021-11-21 00:27:00,,0829.1,5.00,0.00,26.1,25.3,00.0,35.1,27.9,16.0,0000.0,0005.35,0015.92,0003.99
2021-11-21 00:28:00,,0829.2,5.00,0.00,26.1,25.3,00.0,35.1,27.9,16.1,0000.0,0005.26,0015.75,0003.94
2021-11-21 00:29:00,,0829.3,4.98,0.00,26.1,25.3,00.0,35.1,27.9,16.2,0000.0,0005.16,0015.02,0003.90
2021-11-21 00:30:00,,0829.3,5.01,0.00,26.1,25.3,00.0,35.1,28.0,16.5,0000.0,0005.00,0014.51,0003.82
2021-11-21 00:31:00,,0829.3,5.00,0.00,26.1,25.3,00.0,35.1,28.0,16.4,0000.0,0004.95,0013.74,0003.76
2021-11-21 00:32:00,,0829.3,5.00,0.00,26.1,25.3,00.0,35.1,28.0,16.3,0000.0,0004.97,0013.76,0003.72
2021-11-21 00:33:00,,0829.3,5.01,0.00,26.1,25.4,00.0,35.1,28.0,16.6,0000.0,0004.89,0013.73,0003.65
2021-11-21 00:34:00,,0829.2,5.00,0.00,26.2,25.4,00.0,35.1,28.0,17.0,0000.0,0004.70,0012.70,0003.53
2021-11-21 00:35:00,,0829.2,4.99,0.00,26.2,25.4,00.0,35.1,28.0,17.1,0000.0,0004.56,0012.10,0003.40
2021-11-21 00:36:00,,0829.2,5.01,0.00,26.2,25.4,00.0,35.1,28.0,17.2,0000.0,0004.35,0011.50,0003.27
2021-11-21 00:37:00,,0829.2,5.00,0.00,26.2,25.4,00.0,35.1,28.0,16.7,0000.0,0004.18,0012.26,0003.18
2021-11-21 00:38:00,,0829.4,5.00,0.00,26.2,25.4,00.0,35.1,28.0,16.6,0000.0,0004.06,0011.71,0003.10
2021-11-21 00:39:00,,0829.2,5.01,0.00,26.2,25.4,00.0,35.1,28.0,16.7,0000.0,0004.00,0011.64,0003.00
2021-11-21 00:40:00,,0829.3,5.01,0.00,26.2,25.4,00.0,35.1,28.0,16.7,0000.0,0003.94,0011.65,0002.89
2021-11-21 00:41:00,,0829.4,5.00,0.00,26.2,25.4,00.0,35.1,28.0,16.8,0000.0,0003.92,0011.44,0002.82
2021-11-21 00:42:00,,0829.3,5.01,0.00,26.2,25.4,00.0,35.1,28.0,16.9,0000.0,0003.85,0011.38,0002.73
2021-11-21 00:43:00,,0829.3,5.00,0.00,26.2,25.4,00.0,35.1,28.0,17.1,0000.0,0003.67,0011.71,0002.59
2021-11-21 00:44:00,,0829.4,4.99,0.00,26.2,25.4,00.0,35.1,28.0,17.1,0000.0,0003.60,0011.58,0002.49
2021-11-21 00:45:00,,0829.5,5.01,0.00,26.2,25.4,00.0,35.1,28.1,17.3,0000.0,0003.54,0011.33,0002.44
2021-11-21 00:46:00,,0829.5,5.01,0.00,26.2,25.4,00.0,35.1,28.0,17.5,0000.0,0003.47,0011.12,0002.40
2021-11-21 00:47:00,,0829.5,5.01,0.00,26.2,25.4,00.0,35.1,28.0,17.5,0000.0,0003.45,0011.28,0002.36
2021-11-21 00:48:00,,0829.5,4.99,0.00,26.2,25.4,00.0,35.2,28.1,17.4,0000.0,0003.38,0010.19,0002.27
2021-11-21 00:49:00,,0829.5,5.01,0.00,26.2,25.4,00.0,35.2,28.1,17.3,0000.0,0003.31,0010.14,0002.19
2021-11-21 00:50:00,,0829.5,5.00,0.00,26.2,25.4,00.0,35.2,28.1,17.3,0000.0,0003.22,0009.74,0002.12
2021-11-21 00:51:00,,0829.5,5.01,0.00,26.2,25.5,00.0,35.2,28.1,17.3,0000.0,0003.15,0009.62,0002.07
2021-11-21 00:52:00,,0829.5,5.00,0.00,26.2,25.4,00.0,35.2,28.1,17.2,0000.0,0003.11,0009.71,0002.02
2021-11-21 00:53:00,,0829.6,5.00,0.00,26.2,25.5,00.0,35.2,28.1,17.2,0000.0,0003.04,0009.60,0001.99
2021-11-21 00:54:00,,0829.6,5.01,0.00,26.2,25.5,00.0,35.2,28.1,17.2,0000.0,0003.09,0009.37,0001.97
2021-11-21 00:55:00,,0829.6,5.00,0.00,26.3,25.5,00.0,35.2,28.1,17.2,0000.0,0003.00,0008.76,0001.98
2021-11-21 00:56:00,,0829.6,4.99,0.00,26.3,25.5,00.0,35.2,28.1,17.1,0000.0,0003.03,0008.81,0002.00
2021-11-21 00:57:00,,0829.6,5.01,0.00,26.3,25.5,00.0,35.2,28.1,17.1,0000.0,0003.15,0008.93,0002.05
2021-11-21 00:58:00,,0829.6,4.99,0.00,26.3,25.5,00.0,35.2,28.1,17.2,0000.0,0003.18,0008.35,0002.08
2021-11-21 00:59:00,,0829.6,4.99,0.00,26.3,25.5,00.0,35.2,28.1,17.3,0000.0,0003.21,0008.33,0002.09
